SCP
0 0 0 0 0 0 0 0 0 0 0 0 0 0 0 0 0 0 0 0 0 0 0 0 0 0 0 0 0 0 0 0 0 0 0 0 0 0 0 0 0 0 0
0 0 0 0 0 0 0 0 0 0 0 0 0 0 0 0 0 0 0 0 0 0 0 0 0 0 0 0 0 0 0 0 0 0 0 0 0 0 0 0 0 0 0
0 0 0 0 0 0 0 0 0 0 0 0 0 0 0 0 0 0 0 0 0 0 0 0 0 0 0 0 0 0 0 0 0 0 0 0 0 0 0 0 0 0 0
0 0 0 0 0 0 0 0 0 0 0 0 0 0 0 0 0 0 0 0 0 0 0 0 0 0 0 0 0 0 0 0 0 0 0 0 0 0 0 0 0 0 0
0 0 0 0 0 0 0 0 0 0 0 0 0 0 0 0 0 0 0 0 0 0 0 0 0 0 0 0 0 0 0 0 0 0 0 0 0 0 0 0 0 0 0
0 0 0 0 0 0 0 0 0 0 0 0 0 0 0 0 0 0 0 0 0 0 0 0 0 0 0 0 0 0 0 0 0 0 0 0 0 0 0 0 0 0 0
0 0 0 0 0 0 0 0 0 0 0 0 0 0 0 0 0 0 0 0 0 0 0 0 0 0 0 0 0 0 0 0 0 0 0 0 0 0 0 0 0 0 0
0 0 0 0 0 0 0 0 0 0 0 0 0 0 0 0 0 0 0 0 0 0 0 0 0 0 0 0 0 0 0 0 0 0 0 0 0 0 0 0 0 0 0
0 0 0 0 0 0 0 0 0 0 0 0 0 0 0 0 0 0 0 0 0 0 0 0 0 0 0 0 0 0 0 0 0 0 0 0 0 0 0 0 0 0 0
0 0 0 0 0 0 0 0 0 0 0 0 0 0 0 0 0 0 0 0 0 0 0 0 0 0 0 0 0 0 0 0 0 0 0 0 0 0 0 0 0 0 0
0 0 0 0 0 0 0 0 0 0 0 0 0 0 0 0 0 0 0 0 0 0 0 0 0 0 0 0 0 0 0 0 0 0 0 0 0 0 0 0 0 0 0
0 0 0 0 0 0 0 0 0 0 0 0 0 0 0 0 0 0 0 0 0 0 0 0 0 0 0 0 0 0 0 0 0 0 0 0 0 0 0 0 0 0 0
0 0 0 0 0 0 0 0 0 0 0 0 0 0 0 0 0 0 0 0 0 0 0 0 0 0 0 0 0 0 0 0 0 0 0 0 0 0 0 0 0 0 0
0 0 0 0 0 0 0 0 0 0 0 0 0 0 0 0 0 0 0 0 0 0 0 0 0 0 0 0 0 0 0 0 0 0 0 0 0 0 0 0 0 0 0
0 0 0 0 0 0 0 0 0 0 0 0 0 0 0 0 0 0 0 0 0 0 0 0 0 0 0 0 0 0 0 0 0 0 0 0 0 0 0 0 0 0 0
0 0 0 0 0 0 0 0 0 0 0 0 0 0 0 0 0 0 0 0 0 0 0 0 0 0 0 0 0 0 0 0 0 0 0 0 0 0 0 0 0 0 0
0 0 0 0 0 0 0 0 0 0 0 0 0 0 0 0 0 0 0 0 0 0 0 0 0 0 0 0 0 0 0 0 0 0 0 0 0 0 0 0 0 0 0
0 0 0 0 0 0 0 0 0 0 0 0 0 0 0 0 0 0 0 0 0 0 0 0 0 0 0 0 0 0 0 0 0 0 0 0 0 0 0 0 0 0 0
0 0 0 0 0 0 0 -0 -0 -0 -0 -0 -0 0 0 0 0 0 0 0 0 0 0 0 0 0 0 0 0 0 0 0 0 0 0 0 0 0 0 0 0 0 0
0 -0 -0 -0 -0 -0 -0 -0 -0 -0 -0 -0 -0 -0 0 0 0 0 0 0 0 0 0 0 0 0 0 0 0 0 0 0 0 0 0 0 0 0 0 0 0 0 0
0 0 0 0 0 -0 -0 -0 -0 -0 -0 0 0 0 0 0 0 0 0 0 0 0 0 0 0 0 0 0 0 0 0 0 0 0 0 0 0 0 0 0 0 0 0
0 0 0 0 0 0 0 0 0 0 0 0 0 0 0 0 0 0 0 0 0 0 0 0 0 0 0 0 0 0 0 0 0 0 0 0 0 0 0 0 0 0 0
0 0 0 0 0 0 0 0 0 0 0 0 0 0 0 0 0 0 0 0 0 0 0 0 0 0 0 0 0 0 0 0 0 0 0 0 0 0 0 0 0 0 0
0 0 0 0 0 0 0 0 0 0 0 0 0 0 0 0 0 0 0 0 0 0 0 0 0 0 0 0 0 0 0 0 0 0 0 0 0 0 0 0 0 0 0
0 0 0 0 0 0 0 0 0 0 0 0 0 0 0 0 0 0 0 0 0 0 0 0 0 0 0 0 0 0 0 0 0 0 0 0 0 0 0 0 0 0 0
0 0 0 0 0 0 0 0 0 0 0 0 0 0 0 0 0 0 0 0 0 0 0 0 0 0 0 0 0 0 0 0 0 0 0 0 0 0 0 0 0 0 0
Wind_Speed_500mb
58 55 53 53 51 49 44 42 40 39 40 38 37 35 33 30 27 26 25 25 26 27 29 30 31 29 28 25 21 20 20 23 19 23 23 24 20 20 19 26 34 39 43
54 56 57 56 55 47 47 46 45 44 44 44 42 40 39 37 34 31 29 28 27 28 29 29 30 28 26 18 15 20 23 27 19 23 25 26 27 25 24 28 31 30 30
51 51 58 61 60 50 46 48 50 50 51 50 49 48 45 43 40 37 35 31 29 28 29 29 29 29 30 23 30 26 24 32 23 22 18 21 25 27 30 33 28 25 27
43 51 54 57 56 53 48 51 53 55 54 54 54 52 51 49 47 44 41 37 35 32 31 31 31 31 31 30 32 37 35 28 24 24 15 18 20 23 28 28 29 27 29
38 42 45 50 48 52 53 52 55 56 55 56 57 58 57 56 53 51 48 45 41 37 35 35 34 33 31 39 36 23 26 28 26 28 23 27 27 29 26 24 20 21 20
32 36 39 42 47 50 54 54 56 56 58 55 58 62 63 62 59 58 56 54 48 44 41 39 38 36 37 41 38 31 29 30 32 31 29 28 29 30 29 28 25 23 22
24 26 30 36 42 48 51 52 53 57 60 58 60 65 69 70 69 67 65 60 57 52 49 45 41 41 43 45 45 42 36 35 32 34 26 28 30 30 30 29 29 28 26
25 26 28 30 36 44 48 52 54 59 61 61 64 66 60 69 79 77 74 72 67 62 58 52 49 46 46 49 48 46 44 40 39 34 26 26 26 28 28 27 27 28 27
24 27 26 30 36 38 41 47 52 57 62 63 66 59 22 34 48 57 74 79 76 71 65 61 57 52 51 51 50 49 49 49 48 40 34 32 29 28 28 27 27 28 28
24 27 30 34 35 39 44 45 44 50 59 64 66 71 78 74 36 29 37 48 67 74 72 68 64 59 54 53 51 50 51 55 55 44 41 37 34 32 31 31 30 29 27
10 13 21 26 33 39 40 40 44 48 54 60 65 68 72 79 88 83 72 64 62 55 58 65 69 64 60 57 55 53 55 57 57 49 46 43 39 37 36 35 33 31 30
18 15 19 24 26 28 32 42 46 48 52 59 61 64 73 76 73 77 86 91 92 83 75 72 71 67 65 63 60 59 59 58 59 58 52 49 44 41 39 37 35 32 29
26 29 29 28 29 28 30 36 40 45 51 54 60 66 68 76 81 84 84 84 84 81 81 80 72 72 72 70 67 65 64 63 63 60 57 54 49 46 43 40 38 35 32
28 29 30 31 31 32 33 33 33 36 45 52 60 65 68 71 74 77 81 83 89 87 86 81 73 71 73 74 73 73 71 68 67 65 61 58 55 52 49 46 43 39 37
29 29 32 34 37 37 37 39 40 38 38 41 48 58 64 71 72 74 77 76 81 77 87 81 79 76 74 76 77 80 81 75 73 71 67 63 62 58 55 52 49 45 42
39 41 43 45 47 47 46 44 46 47 49 46 46 47 49 59 70 73 73 75 78 84 95 83 81 75 75 79 78 81 84 82 80 77 73 68 67 64 62 59 55 51 47
42 44 47 50 53 56 59 60 58 57 59 61 57 57 54 50 53 63 73 75 79 79 95 101 96 89 84 87 82 77 83 86 86 82 79 76 73 71 69 65 62 57 54
48 52 55 60 63 68 72 75 76 75 75 74 71 70 71 65 63 57 59 68 78 82 88 101 95 99 96 94 91 89 89 89 92 87 85 82 78 77 76 74 69 65 61
62 65 68 72 76 79 83 84 86 88 90 90 87 83 82 78 80 74 68 68 68 70 79 91 98 93 96 96 90 94 96 98 100 93 90 88 85 83 86 80 76 72 69
71 78 85 93 96 99 97 96 94 94 97 99 99 98 97 93 90 85 80 78 75 73 71 79 92 90 88 95 97 99 100 101 102 97 98 96 93 92 90 87 86 83 75
76 84 92 98 102 105 106 103 96 96 99 103 105 108 108 105 104 100 96 93 83 81 79 80 86 81 89 93 103 109 108 102 102 103 109 107 103 100 98 96 97 92 84
92 98 100 103 107 108 106 104 95 97 103 108 114 114 112 115 114 110 102 102 95 87 88 88 93 89 96 87 92 99 102 104 110 115 117 117 110 107 105 106 107 99 93
93 99 103 104 107 109 109 107 88 87 103 110 115 119 122 122 118 112 100 85 90 96 95 94 100 101 96 89 79 89 99 106 117 96 87 115 118 116 114 113 109 104 99
93 97 102 104 108 109 103 97 86 89 102 108 108 110 111 119 117 99 95 94 92 101 112 107 104 111 100 92 84 88 88 93 98 105 106 107 113 122 123 116 112 109 109
94 97 100 102 102 101 89 80 69 76 85 91 87 87 86 92 89 79 83 94 98 112 98 96 103 109 102 93 90 89 89 88 98 97 110 109 107 113 116 119 121 113 115
94 96 99 97 94 92 80 71 59 64 74 79 81 74 70 71 75 73 76 87 100 114 91 93 95 106 105 98 92 99 103 104 103 77 105 101 104 91 89 108 117 119 121
Wind_Direction_500mb
240 244 251 255 257 260 262 259 251 245 242 242 243 246 250 254 259 266 274 278 281 281 281 284 284 281 276 273 256 252 245 238 244 235 235 232 227 226 219 215 222 227 232
246 248 252 258 266 263 264 263 256 248 246 244 245 247 248 250 252 256 261 267 273 277 278 275 275 276 273 266 230 226 238 248 254 256 243 239 237 234 226 228 237 238 239
253 250 254 256 261 269 274 264 257 250 246 245 246 246 248 250 252 253 257 262 267 270 273 273 269 265 259 234 217 221 234 264 267 249 248 232 235 241 243 243 240 236 233
258 254 254 256 262 259 274 272 266 259 253 249 248 250 250 249 251 253 257 261 266 269 272 273 271 266 259 227 234 238 246 250 260 238 231 223 224 220 235 248 249 247 241
264 261 263 261 259 256 264 271 270 264 260 256 255 251 248 248 249 251 255 258 261 263 266 268 269 265 256 228 246 225 222 225 244 255 245 246 243 243 243 240 232 237 238
273 271 267 265 263 263 267 268 269 263 261 260 260 258 254 251 250 250 252 253 256 258 260 261 262 261 255 251 247 231 225 236 245 262 261 259 251 253 249 244 241 236 234
278 282 282 278 277 277 274 277 273 269 265 263 260 257 255 253 252 251 251 254 255 256 258 259 259 255 252 251 250 245 237 242 248 277 278 269 260 258 254 253 253 250 246
277 274 278 282 282 282 280 278 274 273 270 265 258 257 258 258 254 253 253 254 255 255 255 258 259 257 254 253 251 249 244 234 235 271 274 269 263 255 251 251 252 254 253
283 276 274 270 270 273 277 279 277 277 277 273 266 252 249 249 265 260 254 253 253 253 255 255 257 257 257 256 252 249 247 239 243 268 266 269 257 250 248 248 248 248 250
272 268 266 265 265 268 274 275 277 275 274 273 272 265 255 255 275 284 274 264 256 253 254 256 257 256 257 258 254 250 248 249 256 262 259 261 253 251 249 248 248 248 250
324 300 290 283 271 265 271 272 270 272 273 274 270 270 269 264 260 264 274 273 274 273 267 262 258 256 255 254 250 249 250 252 258 261 258 257 249 247 246 247 247 246 245
12 347 322 313 308 298 289 274 269 268 267 269 270 269 266 264 263 265 268 272 274 274 275 272 264 259 254 252 250 249 250 252 257 259 257 254 246 245 245 245 246 246 246
21 17 10 2 351 336 315 298 290 280 270 269 269 267 267 266 266 266 267 271 274 274 273 271 266 264 258 252 250 251 251 251 253 255 256 253 245 245 240 239 240 241 241
17 11 6 1 356 350 348 343 324 302 289 281 274 267 265 267 269 268 267 268 271 273 270 268 267 263 262 257 254 253 251 252 252 252 251 250 245 244 240 236 235 236 239
359 355 349 345 343 340 338 335 333 330 324 312 296 286 277 270 266 268 269 266 267 269 269 269 267 264 264 263 260 258 255 253 250 249 248 247 243 241 239 236 235 235 238
337 336 335 333 331 332 329 325 322 320 317 315 314 312 301 286 275 270 269 269 264 266 270 266 264 266 265 265 263 259 256 254 251 248 246 244 241 240 238 237 237 239 239
328 328 326 324 322 322 321 320 318 316 312 309 308 306 304 303 296 285 275 270 268 266 268 267 265 261 259 262 261 261 256 254 251 248 245 242 239 237 237 238 238 239 241
322 321 319 318 316 314 313 313 312 310 308 305 303 300 298 298 295 293 291 286 275 269 267 270 267 262 260 260 263 262 260 258 252 247 243 242 240 237 236 235 237 240 242
320 318 316 313 311 309 307 306 306 305 302 301 298 295 292 292 290 291 289 289 289 285 275 270 268 264 260 257 258 259 257 256 251 247 244 241 240 237 236 235 236 239 243
314 313 313 311 310 309 306 304 303 300 297 295 294 292 290 287 285 285 284 284 284 285 284 278 271 266 262 256 255 257 255 252 249 247 244 242 240 237 235 235 235 236 239
309 308 307 305 304 304 305 307 306 302 297 292 289 288 287 286 284 282 281 279 279 278 279 278 277 269 262 255 248 249 251 252 251 249 245 241 238 237 236 234 236 235 236
310 308 307 306 304 303 303 302 301 297 293 291 289 287 284 284 283 282 280 277 275 272 270 272 273 271 267 260 259 252 252 250 247 245 244 243 239 239 238 235 237 236 236
308 307 306 306 304 303 301 300 299 291 288 286 285 285 284 282 281 281 280 275 271 268 263 264 265 266 269 265 255 257 252 249 251 246 248 248 244 242 240 238 236 236 237
309 308 308 306 304 303 303 300 297 291 287 285 284 281 279 280 279 281 279 271 267 269 266 261 258 262 264 267 258 253 252 259 257 252 248 245 248 245 242 241 239 234 236
311 311 309 309 309 308 309 306 300 294 291 290 289 289 289 288 286 282 277 274 273 262 260 264 264 260 260 261 262 255 240 240 244 243 239 239 241 245 244 245 242 234 235
313 313 312 314 312 308 309 307 300 295 295 297 297 293 292 289 287 284 279 278 274 265 269 263 262 261 259 256 251 248 250 233 235 240 242 234 235 237 236 240 242 236 231
Wind_Speed_850mb
58 55 53 53 51 49 44 42 40 39 40 38 37 35 33 30 27 26 25 25 26 27 29 30 31 29 28 25 21 20 20 23 19 23 23 24 20 20 19 26 34 39 43
54 56 57 56 55 47 47 46 45 44 44 44 42 40 39 37 34 31 29 28 27 28 29 29 30 28 26 18 15 20 23 27 19 23 25 26 27 25 24 28 31 30 30
51 51 58 61 60 50 46 48 50 50 51 50 49 48 45 43 40 37 35 31 29 28 29 29 29 29 30 23 30 26 24 32 23 22 18 21 25 27 30 33 28 25 27
43 51 54 57 56 53 48 51 53 55 54 54 54 52 51 49 47 44 41 37 35 32 31 31 31 31 31 30 32 37 35 28 24 24 15 18 20 23 28 28 29 27 29
38 42 45 50 48 52 53 52 55 56 55 56 57 58 57 56 53 51 48 45 41 37 35 35 34 33 31 39 36 23 26 28 26 28 23 27 27 29 26 24 20 21 20
32 36 39 42 47 50 54 54 56 56 58 55 58 62 63 62 59 58 56 54 48 44 41 39 38 36 37 41 38 31 29 30 32 31 29 28 29 30 29 28 25 23 22
24 26 30 36 42 48 51 52 53 57 60 58 60 65 69 70 69 67 65 60 57 52 49 45 41 41 43 45 45 42 36 35 32 34 26 28 30 30 30 29 29 28 26
25 26 28 30 36 44 48 52 54 59 61 61 64 66 60 69 79 77 74 72 67 62 58 52 49 46 46 49 48 46 44 40 39 34 26 26 26 28 28 27 27 28 27
24 27 26 30 36 38 41 47 52 57 62 63 66 59 22 34 48 57 74 79 76 71 65 61 57 52 51 51 50 49 49 49 48 40 34 32 29 28 28 27 27 28 28
24 27 30 34 35 39 44 45 44 50 59 64 66 71 78 74 36 29 37 48 67 74 72 68 64 59 54 53 51 50 51 55 55 44 41 37 34 32 31 31 30 29 27
10 13 21 26 33 39 40 40 44 48 54 60 65 68 72 79 88 83 72 64 62 55 58 65 69 64 60 57 55 53 55 57 57 49 46 43 39 37 36 35 33 31 30
18 15 19 24 26 28 32 42 46 48 52 59 61 64 73 76 73 77 86 91 92 83 75 72 71 67 65 63 60 59 59 58 59 58 52 49 44 41 39 37 35 32 29
26 29 29 28 29 28 30 36 40 45 51 54 60 66 68 76 81 84 84 84 84 81 81 80 72 72 72 70 67 65 64 63 63 60 57 54 49 46 43 40 38 35 32
28 29 30 31 31 32 33 33 33 36 45 52 60 65 68 71 74 77 81 83 89 87 86 81 73 71 73 74 73 73 71 68 67 65 61 58 55 52 49 46 43 39 37
29 29 32 34 37 37 37 39 40 38 38 41 48 58 64 71 72 74 77 76 81 77 87 81 79 76 74 76 77 80 81 75 73 71 67 63 62 58 55 52 49 45 42
39 41 43 45 47 47 46 44 46 47 49 46 46 47 49 59 70 73 73 75 78 84 95 83 81 75 75 79 78 81 84 82 80 77 73 68 67 64 62 59 55 51 47
42 44 47 50 53 56 59 60 58 57 59 61 57 57 54 50 53 63 73 75 79 79 95 101 96 89 84 87 82 77 83 86 86 82 79 76 73 71 69 65 62 57 54
48 52 55 60 63 68 72 75 76 75 75 74 71 70 71 65 63 57 59 68 78 82 88 101 95 99 96 94 91 89 89 89 92 87 85 82 78 77 76 74 69 65 61
62 65 68 72 76 79 83 84 86 88 90 90 87 83 82 78 80 74 68 68 68 70 79 91 98 93 96 96 90 94 96 98 100 93 90 88 85 83 86 80 76 72 69
71 78 85 93 96 99 97 96 94 94 97 99 99 98 97 93 90 85 80 78 75 73 71 79 92 90 88 95 97 99 100 101 102 97 98 96 93 92 90 87 86 83 75
76 84 92 98 102 105 106 103 96 96 99 103 105 108 108 105 104 100 96 93 83 81 79 80 86 81 89 93 103 109 108 102 102 103 109 107 103 100 98 96 97 92 84
92 98 100 103 107 108 106 104 95 97 103 108 114 114 112 115 114 110 102 102 95 87 88 88 93 89 96 87 92 99 102 104 110 115 117 117 110 107 105 106 107 99 93
93 99 103 104 107 109 109 107 88 87 103 110 115 119 122 122 118 112 100 85 90 96 95 94 100 101 96 89 79 89 99 106 117 96 87 115 118 116 114 113 109 104 99
93 97 102 104 108 109 103 97 86 89 102 108 108 110 111 119 117 99 95 94 92 101 112 107 104 111 100 92 84 88 88 93 98 105 106 107 113 122 123 116 112 109 109
94 97 100 102 102 101 89 80 69 76 85 91 87 87 86 92 89 79 83 94 98 112 98 96 103 109 102 93 90 89 89 88 98 97 110 109 107 113 116 119 121 113 115
94 96 99 97 94 92 80 71 59 64 74 79 81 74 70 71 75 73 76 87 100 114 91 93 95 106 105 98 92 99 103 104 103 77 105 101 104 91 89 108 117 119 121
Wind_Direction_850mb
240 244 251 255 257 260 262 259 251 245 242 242 243 246 250 254 259 266 274 278 281 281 281 284 284 281 276 273 256 252 245 238 244 235 235 232 227 226 219 215 222 227 232
246 248 252 258 266 263 264 263 256 248 246 244 245 247 248 250 252 256 261 267 273 277 278 275 275 276 273 266 230 226 238 248 254 256 243 239 237 234 226 228 237 238 239
253 250 254 256 261 269 274 264 257 250 246 245 246 246 248 250 252 253 257 262 267 270 273 273 269 265 259 234 217 221 234 264 267 249 248 232 235 241 243 243 240 236 233
258 254 254 256 262 259 274 272 266 259 253 249 248 250 250 249 251 253 257 261 266 269 272 273 271 266 259 227 234 238 246 250 260 238 231 223 224 220 235 248 249 247 241
264 261 263 261 259 256 264 271 270 264 260 256 255 251 248 248 249 251 255 258 261 263 266 268 269 265 256 228 246 225 222 225 244 255 245 246 243 243 243 240 232 237 238
273 271 267 265 263 263 267 268 269 263 261 260 260 258 254 251 250 250 252 253 256 258 260 261 262 261 255 251 247 231 225 236 245 262 261 259 251 253 249 244 241 236 234
278 282 282 278 277 277 274 277 273 269 265 263 260 257 255 253 252 251 251 254 255 256 258 259 259 255 252 251 250 245 237 242 248 277 278 269 260 258 254 253 253 250 246
277 274 278 282 282 282 280 278 274 273 270 265 258 257 258 258 254 253 253 254 255 255 255 258 259 257 254 253 251 249 244 234 235 271 274 269 263 255 251 251 252 254 253
283 276 274 270 270 273 277 279 277 277 277 273 266 252 249 249 265 260 254 253 253 253 255 255 257 257 257 256 252 249 247 239 243 268 266 269 257 250 248 248 248 248 250
272 268 266 265 265 268 274 275 277 275 274 273 272 265 255 255 275 284 274 264 256 253 254 256 257 256 257 258 254 250 248 249 256 262 259 261 253 251 249 248 248 248 250
324 300 290 283 271 265 271 272 270 272 273 274 270 270 269 264 260 264 274 273 274 273 267 262 258 256 255 254 250 249 250 252 258 261 258 257 249 247 246 247 247 246 245
12 347 322 313 308 298 289 274 269 268 267 269 270 269 266 264 263 265 268 272 274 274 275 272 264 259 254 252 250 249 250 252 257 259 257 254 246 245 245 245 246 246 246
21 17 10 2 351 336 315 298 290 280 270 269 269 267 267 266 266 266 267 271 274 274 273 271 266 264 258 252 250 251 251 251 253 255 256 253 245 245 240 239 240 241 241
17 11 6 1 356 350 348 343 324 302 289 281 274 267 265 267 269 268 267 268 271 273 270 268 267 263 262 257 254 253 251 252 252 252 251 250 245 244 240 236 235 236 239
359 355 349 345 343 340 338 335 333 330 324 312 296 286 277 270 266 268 269 266 267 269 269 269 267 264 264 263 260 258 255 253 250 249 248 247 243 241 239 236 235 235 238
337 336 335 333 331 332 329 325 322 320 317 315 314 312 301 286 275 270 269 269 264 266 270 266 264 266 265 265 263 259 256 254 251 248 246 244 241 240 238 237 237 239 239
328 328 326 324 322 322 321 320 318 316 312 309 308 306 304 303 296 285 275 270 268 266 268 267 265 261 259 262 261 261 256 254 251 248 245 242 239 237 237 238 238 239 241
322 321 319 318 316 314 313 313 312 310 308 305 303 300 298 298 295 293 291 286 275 269 267 270 267 262 260 260 263 262 260 258 252 247 243 242 240 237 236 235 237 240 242
320 318 316 313 311 309 307 306 306 305 302 301 298 295 292 292 290 291 289 289 289 285 275 270 268 264 260 257 258 259 257 256 251 247 244 241 240 237 236 235 236 239 243
314 313 313 311 310 309 306 304 303 300 297 295 294 292 290 287 285 285 284 284 284 285 284 278 271 266 262 256 255 257 255 252 249 247 244 242 240 237 235 235 235 236 239
309 308 307 305 304 304 305 307 306 302 297 292 289 288 287 286 284 282 281 279 279 278 279 278 277 269 262 255 248 249 251 252 251 249 245 241 238 237 236 234 236 235 236
310 308 307 306 304 303 303 302 301 297 293 291 289 287 284 284 283 282 280 277 275 272 270 272 273 271 267 260 259 252 252 250 247 245 244 243 239 239 238 235 237 236 236
308 307 306 306 304 303 301 300 299 291 288 286 285 285 284 282 281 281 280 275 271 268 263 264 265 266 269 265 255 257 252 249 251 246 248 248 244 242 240 238 236 236 237
309 308 308 306 304 303 303 300 297 291 287 285 284 281 279 280 279 281 279 271 267 269 266 261 258 262 264 267 258 253 252 259 257 252 248 245 248 245 242 241 239 234 236
311 311 309 309 309 308 309 306 300 294 291 290 289 289 289 288 286 282 277 274 273 262 260 264 264 260 260 261 262 255 240 240 244 243 239 239 241 245 244 245 242 234 235
313 313 312 314 312 308 309 307 300 295 295 297 297 293 292 289 287 284 279 278 274 265 269 263 262 261 259 256 251 248 250 233 235 240 242 234 235 237 236 240 242 236 231